COSMOS 1275 DEB

Satellite information

Favourite Embed

Satellite Type and Status

DEBRISIN ORBIT

Key statistics

Satellite COSMOS 1275 DEB at a glance.

Uptime

16208

Days in orbit

Revolutions

≈ 14.3

Per day

Orbit

LEO

Low Earth Orbit

Inclination

82.9

Latest

Satellite identification and parameters

Extended collection of information and parameters for COSMOS 1275 DEB.

Object identification

Identified? True

Debris? True

Object name: COSMOS 1275 DEB

International designator: 1981-053LK

Object number (NORAD): 17640

Object ID (CCSDS): 17640

Country: COMMONWEALTH OF INDEPENDENT STATES (CIS)

Current information (Y/N): Y

RCS size: SMALL

Orbital parameters

Period: 100.493 minutes

Inclination: 82.9171 deg

SMA: 7160.088 km

Apoapsis: 796.854 km

Periapsis: 767.051 km

RAAN: 180.0852 deg

Eccentricy: 0.00208117

Argument of periapsis: 200.0471 deg

Mean anomaly: 159.9902 deg

Mean motion: 14.32930858 rev/day

Mean motion (dot): 0.00006659 rev/day2

B* drag term: 0.0024246533 1/REarth

Two-line elements (TLE)

Creation date: Oct. 19, 2025, 2:20 a.m.

Reference frame: TEME

Reference center: EARTH

Epoch: Oct. 18, 2025, 11:27 p.m. UTC

TLE line 0: 0 COSMOS 1275 DEB

TLE line 1: 1 17640U 81053LK 25291.97755915 .00006659 00000-0 24247-2 0 9999

TLE line 2: 2 17640 82.9171 180.0852 0020812 200.0471 159.9902 14.32930858776603

Live tracking on map

Real-time ground track for satellite COSMOS 1275 DEB.

In-orbit conjunctions

A list of the most updated potential collisions computed for object COSMOS 1275 DEB.

Target Orbit TCA Probability of collision Miss distance Type
FASAT B SSO 2025-06-01 11:22:20 0.0001269982 182.0 (m) PAYLOAD
CZ-6A DEB LEO 2024-11-11 23:20:48 0.0001923442 169.0 (m) DEBRIS
SL-16 DEB LEO 2024-09-06 17:43:53 0.0002827841 137.0 (m) DEBRIS
FENGYUN 1C DEB SSO 2024-07-22 11:55:18 0.0001061096 77.0 (m) DEBRIS
FENGYUN 1C DEB SSO 2024-06-05 01:46:02 0.0001356469 86.0 (m) DEBRIS

Associated space launch

Navigation satellite providing location information for the Tsiklon-B navigation system

COSMOS 1275 DEB was lifted into orbit during the mission ‘Kosmos-3M | Parus 27’, on board a Kosmos-3M space rocket.

The launch took place on June 4, 1981, 3:41 p.m. from 132/2.

For more information about the launch, click the button.

Launch to space Kosmos-3M | Parus 27
Kosmos-3M | Parus 27

Agency: N/A

Status: Launch Successful

Launch date: June 4, 1981, 3:41 p.m. UTC

Rocket: Kosmos-3M

Launch pad: 132/2

Location: Plesetsk Cosmodrome, Russian Federation

...

Latest news about this satellite

There are no fresh news available about this satellite. Check back as we update our databases every day.


Newsletter sign-up

Weekly statistics, charts and insights to help you stay on top of the space industry.